[[{"header":{"parameterUnit":"m.s-1","parameterCategory":1,"la1":30.2991,"la2":30.254,"lo1":-89.0895,"lo2":-89.0444,"dy":0.0017,"dx":0.0017,"nx":28,"ny":28,"refTime":"2025-06-09T03:00:00:Z","depth":0,"parameterNumber":2,"parameterNumberName":"U-component_of_WINDS"},"data":[0,0,0,0,0,0,0,0,0,0,0,0,0,0,0,0,0,0,0,0,0,0,0,0,0,0,0,0,0,0,0,0,0,0,0,0,0,0,0,0,0,0,0,0,0,0,0,0,0,0,0,0,0,0,0,0,0,0,5.0672,5.0675,0,5.0875,5.0877,5.088,5.0821,5.0817,5.0813,5.0809,5.102,5.1029,5.1039,0,0,0,0,0,0,0,0,0,0,0,0,0,5.0236,5.0244,5.0672,5.0675,5.0677,5.0875,5.0878,5.088,5.0822,5.0817,5.0812,5.0807,5.1017,5.1028,5.104,0,0,0,0,0,0,0,0,0,0,0,0,0,5.0431,5.0247,5.0672,5.0672,5.0674,5.0874,5.0878,5.0881,5.0823,5.0817,5.0811,5.0805,5.1013,5.1027,5.1041,5.1255,0,0,5.1085,5.1091,0,0,0,0,0,0,0,0,5.042,5.0447,5.0669,5.0672,5.0675,5.0816,5.0801,5.1006,5.0825,5.0767,5.0809,5.0802,5.0958,5.0976,5.1028,5.1265,5.1274,5.1086,5.1095,5.1101,5.1105,0,0,0,0,0,0,0,5.0406,5.0438,5.0752,5.0673,5.0676,5.0662,5.0683,5.084,5.0895,5.0771,5.0768,5.0792,5.0958,5.1015,5.1033,5.1277,5.1086,5.1098,5.1107,5.1113,5.1696,5.1702,0,0,0,0,0,0,5.0391,5.0427,5.0746,5.0759,5.0529,5.0675,5.0699,5.0777,5.0893,5.0905,5.0797,5.0789,5.0993,5.1016,5.104,5.1295,5.1101,5.1114,5.1122,5.1689,5.1697,5.1705,0,0,0,0,0,0,5.0381,5.042,5.0738,5.0592,5.0631,5.0689,5.0779,5.0785,5.0841,5.0913,5.0922,5.0845,5.0989,5.102,5.1201,5.1301,5.1121,5.1134,5.1681,5.1691,5.1701,5.1808,0,0,0,0,0,0,5.0369,5.0417,5.0498,5.0594,5.0639,5.0895,5.0785,5.0793,5.0865,5.0856,5.096,5.0971,5.0987,5.118,5.1215,5.1318,5.1145,5.1672,5.1685,5.1698,5.1796,5.1821,5.1842,0,0,0,0,0,5.0354,5.0522,5.0503,5.0541,5.0742,5.0901,5.0927,5.0941,5.0874,5.0956,5.1002,5.0968,5.1285,5.1199,5.1238,5.1347,5.1665,5.1682,5.1697,5.1785,5.1816,5.1842,0,0,0,0,0,0,5.0438,5.0534,5.0514,5.0718,5.0802,5.0891,5.0995,5.0973,5.1079,5.1066,5.1079,5.1103,5.1288,5.1336,5.1238,5.1558,5.1465,5.149,5.152,5.1549,5.1572,5.1556,5.1157,0,0,0,0,0,5.0479,5.06,5.0678,5.0851,5.0893,5.0937,5.1007,5.101,5.1098,5.1133,5.1192,5.128,5.1398,5.1477,5.1591,5.1803,5.1823,5.1897,5.192,5.1939,5.1959,5.2072,5.2105,5.1756,5.1756,5.1755,0,0,5.0568,5.0636,5.0711,5.0869,5.0934,5.1058,5.0968,5.1104,5.1196,5.1155,5.1328,5.1375,5.1473,5.1669,5.1759,5.1715,5.206,5.1959,5.1973,5.1983,5.2092,5.2125,5.2154,5.1766,5.1764,5.1763,0,0,5.0792,5.0856,5.1005,5.1072,5.1171,5.1199,5.1234,5.1327,5.1356,5.153,5.1501,5.1611,5.1817,5.1887,5.1949,5.2198,5.217,5.2235,5.2356,5.2466,5.2494,5.2518,5.2604,5.2635,5.2255,5.2256,5.2256,0,5.0889,5.1075,5.1085,5.1223,5.1292,5.1259,5.141,5.1474,5.1606,5.1655,5.1604,5.1859,5.1923,5.2134,5.2194,5.2247,5.2287,5.2222,5.2489,5.2513,5.2536,5.2619,5.2651,5.2263,5.2262,5.2261,5.226,0,5.1188,5.1317,5.1426,5.1552,5.1634,5.1778,5.181,5.1892,5.1888,5.1921,5.2098,5.2173,5.23,5.2351,5.2349,5.2562,5.2531,5.2485,5.2391,5.2576,5.2654,5.2686,5.2273,5.227,5.2268,5.2266,0,0,5.1471,5.1599,5.1639,5.1694,5.18,5.1901,5.2043,5.2165,5.2234,5.2327,5.2445,5.2619,5.2575,5.2646,5.2652,5.2749,5.2938,5.269,5.2692,5.2731,5.3174,5.3207,5.3243,5.292,5.2926,5.2931,5.3165,0,5.1702,5.195,5.1963,5.2188,5.2306,5.2276,5.2399,5.2478,5.2512,5.2618,5.2657,5.2778,5.2713,5.2755,5.285,5.2895,5.3027,5.2878,5.303,5.3035,5.3004,5.3284,5.332,5.3537,5.3196,5.3201,5.3205,0,5.2005,5.2104,5.2341,5.2427,5.2478,5.2588,5.27,5.2802,5.289,5.2908,5.2987,5.2978,5.3123,5.3026,5.3225,5.3123,5.3186,5.3218,5.3226,5.3239,5.3129,5.3303,5.3607,5.3638,5.3253,5.3249,5.3246,0,5.2184,5.2377,5.2543,5.2592,5.2698,5.2776,5.2824,5.2906,5.2978,5.3077,5.3123,5.3238,5.3301,5.339,5.3412,5.334,5.361,5.3516,5.3628,5.3628,5.3685,5.3681,5.4001,5.373,5.3729,5.3729,5.3728,0,5.244,5.2586,5.2624,5.2726,5.2888,5.2901,5.3061,5.3104,5.3176,5.3285,5.3267,5.337,5.3394,5.3502,5.3521,5.3681,5.3711,5.3729,5.3732,5.3729,5.3727,5.3769,5.3754,5.3737,5.3736,5.3734,5.3732,0,5.2667,5.2699,5.2877,5.2962,5.2987,5.3102,5.3175,5.3273,5.3304,5.3443,5.3476,5.3527,5.3652,5.3683,5.3835,5.3847,5.4035,5.4025,5.4005,5.4004,5.4114,5.4102,5.4471,5.4519,5.4218,5.4221,5.4223,0,5.2827,5.2938,5.3034,5.3105,5.3156,5.3272,5.3344,5.3362,5.3438,5.3545,5.363,5.3753,5.3852,5.4054,5.4104,5.4219,5.421,5.4331,5.4227,5.422,5.4209,5.4201,5.4211,5.435,5.4354,5.4356,5.4358,0,5.3107,5.3117,5.3222,5.3332,5.3419,5.3507,5.3592,5.3651,5.368,5.3767,5.3894,5.3971,5.4123,5.4245,5.436,5.441,5.4389,5.4391,5.4422,5.442,5.4403,5.4411,5.4056,5.4382,5.438,5.4378,5.4377,5.4376,5.3304,5.34,5.3481,5.3598,5.3663,5.3742,5.3836,5.3879,5.3985,5.4109,5.4114,5.4251,5.4335,5.4487,5.4543,5.4651,5.4614,5.4661,5.4672,5.4683,5.4691,5.4387,5.4672,5.4672,5.4671,5.4671,5.467,0,5.358,5.3631,5.3738,5.3855,5.3947,5.3919,5.401,5.4089,5.421,5.4289,5.4386,5.4531,5.4649,5.4708,5.4824,5.4899,5.4892,5.4929,5.4922,5.4933,5.4719,5.4678,5.4932,5.4932,5.4932,5.4932,5.4932,5.4932,5.3735,5.3894,5.3913,5.4104,5.4154,5.4288,5.4342,5.4414,5.4477,5.4639,5.4736,5.4773,5.4844,5.4965,5.5071,5.5085,5.5128,5.5169,5.5178,5.4976,5.4949,5.4923,5.4885,5.5179,5.5179,5.5383,5.5385,5.5387]},{"header":{"parameterUnit":"m.s-1","parameterCategory":1,"la1":30.2991,"la2":30.254,"lo1":-89.0895,"lo2":-89.0444,"dy":0.0017,"dx":0.0017,"nx":28,"ny":28,"refTime":"2025-06-09T03:00:00:Z","depth":0,"parameterNumber":3,"parameterNumberName":"V-component_of_WINDS"},"data":[0,0,0,0,0,0,0,0,0,0,0,0,0,0,0,0,0,0,0,0,0,0,0,0,0,0,0,0,0,0,0,0,0,0,0,0,0,0,0,0,0,0,0,0,0,0,0,0,0,0,0,0,0,0,0,0,0,0,0.3528,0.3528,0,0.353,0.353,0.353,0.3497,0.3496,0.3496,0.3495,0.35,0.3501,0.3502,0,0,0,0,0,0,0,0,0,0,0,0,0,0.3496,0.3497,0.3528,0.3528,0.3528,0.353,0.353,0.353,0.3498,0.3496,0.3495,0.3494,0.35,0.3501,0.3503,0,0,0,0,0,0,0,0,0,0,0,0,0,0.3505,0.3497,0.3528,0.3512,0.351,0.353,0.353,0.3531,0.3498,0.3496,0.3495,0.3494,0.35,0.3501,0.3503,0.354,0,0,0.3507,0.3508,0,0,0,0,0,0,0,0,0.3505,0.3507,0.3514,0.3513,0.3511,0.3512,0.3521,0.3534,0.3498,0.3503,0.3495,0.3493,0.3506,0.3507,0.351,0.354,0.354,0.3507,0.3508,0.3509,0.3509,0,0,0,0,0,0,0,0.3504,0.3506,0.3529,0.3514,0.3512,0.3505,0.3505,0.3524,0.3512,0.3502,0.35,0.35,0.3505,0.3509,0.351,0.354,0.3507,0.3509,0.351,0.351,0.36,0.3601,0,0,0,0,0,0,0.3506,0.3506,0.3529,0.3529,0.3504,0.3507,0.3506,0.3513,0.3512,0.351,0.3501,0.3499,0.3507,0.3508,0.351,0.3553,0.3509,0.351,0.3511,0.3599,0.36,0.3602,0,0,0,0,0,0,0.3505,0.3508,0.3529,0.3517,0.3519,0.3509,0.3517,0.3514,0.3518,0.3511,0.3509,0.3508,0.3506,0.3508,0.3532,0.3553,0.3511,0.3512,0.3597,0.3599,0.3601,0.364,0,0,0,0,0,0,0.3504,0.3508,0.3521,0.3517,0.352,0.355,0.3518,0.3515,0.352,0.3517,0.3516,0.3515,0.3505,0.353,0.3534,0.3554,0.3514,0.3595,0.3598,0.36,0.3637,0.3643,0.3649,0,0,0,0,0,0.3503,0.3533,0.3522,0.3525,0.3536,0.3551,0.3553,0.354,0.3522,0.3536,0.3531,0.3515,0.355,0.3533,0.3537,0.3558,0.3594,0.3597,0.36,0.3634,0.3642,0.3649,0,0,0,0,0,0,0.3541,0.3532,0.352,0.3549,0.3551,0.3546,0.3563,0.3548,0.3556,0.3553,0.3537,0.3537,0.3564,0.3563,0.3545,0.3594,0.3569,0.3573,0.3593,0.3601,0.3607,0.3607,0.3515,0,0,0,0,0,0.3552,0.3564,0.3556,0.3583,0.3584,0.3573,0.358,0.3569,0.3571,0.3572,0.3569,0.3572,0.3584,0.3592,0.3602,0.3636,0.3636,0.3653,0.3659,0.3664,0.3668,0.3686,0.3693,0.3613,0.3613,0.3613,0,0,0.3576,0.3573,0.3582,0.359,0.3591,0.3605,0.3574,0.359,0.3601,0.3575,0.3597,0.3595,0.3598,0.3627,0.364,0.3627,0.369,0.3668,0.3672,0.3673,0.369,0.3698,0.3705,0.3615,0.3615,0.3614,0,0,0.3628,0.3626,0.3648,0.3648,0.3649,0.3641,0.3647,0.3643,0.364,0.3662,0.3643,0.3656,0.3676,0.3678,0.3683,0.3734,0.3719,0.3738,0.3769,0.3787,0.3794,0.3799,0.3818,0.3825,0.3742,0.3742,0.3742,0,0.3658,0.3677,0.3661,0.3678,0.3683,0.3658,0.3681,0.3682,0.3687,0.3691,0.3676,0.3701,0.3701,0.373,0.3743,0.3747,0.3753,0.3738,0.3794,0.3799,0.3804,0.3822,0.3829,0.3744,0.3744,0.3744,0.3743,0,0.3715,0.3729,0.3746,0.375,0.3756,0.3776,0.3764,0.3772,0.3761,0.3755,0.3778,0.3777,0.3786,0.3792,0.3782,0.3821,0.3813,0.3796,0.3771,0.3814,0.3831,0.3838,0.3747,0.3746,0.3746,0.3745,0,0,0.3791,0.3785,0.3791,0.3793,0.3791,0.3802,0.3821,0.3829,0.3837,0.384,0.3856,0.3873,0.3858,0.3862,0.3852,0.3867,0.3909,0.3849,0.3849,0.3861,0.3952,0.3965,0.3973,0.3899,0.39,0.3901,0.3952,0,0.3841,0.3872,0.3858,0.3891,0.3904,0.388,0.3897,0.3898,0.3893,0.3903,0.3898,0.3911,0.3889,0.3891,0.3905,0.3901,0.3927,0.3897,0.3914,0.3915,0.3916,0.3982,0.3996,0.4044,0.3958,0.3959,0.396,0,0.3905,0.391,0.3944,0.3939,0.3944,0.3959,0.3966,0.3976,0.3977,0.3972,0.3976,0.3962,0.3981,0.3955,0.3981,0.3961,0.3967,0.3966,0.3967,0.397,0.3941,0.3987,0.4059,0.4067,0.397,0.3969,0.3969,0,0.3958,0.3973,0.3995,0.3997,0.3992,0.4004,0.4002,0.4002,0.4007,0.4013,0.4017,0.4025,0.403,0.4037,0.4026,0.4008,0.4054,0.4027,0.4051,0.4052,0.4063,0.4063,0.4139,0.4065,0.4065,0.4065,0.4065,0,0.4016,0.4038,0.4019,0.4033,0.4057,0.404,0.4065,0.4061,0.406,0.4074,0.4054,0.4067,0.4051,0.4062,0.4054,0.4077,0.4079,0.4077,0.4074,0.4079,0.4079,0.4084,0.408,0.4067,0.4067,0.4066,0.4066,0,0.408,0.4068,0.4091,0.4084,0.4083,0.4101,0.4095,0.4108,0.4101,0.4118,0.4121,0.4111,0.4123,0.4112,0.4125,0.4119,0.415,0.4143,0.415,0.4148,0.4173,0.4171,0.4255,0.4266,0.4185,0.4186,0.4187,0,0.4118,0.4134,0.4129,0.4136,0.4136,0.4147,0.4153,0.4137,0.4144,0.4146,0.4159,0.4169,0.4177,0.4199,0.4193,0.4202,0.4195,0.4224,0.4197,0.4201,0.4197,0.4196,0.4198,0.423,0.4231,0.4232,0.4232,0,0.4188,0.4181,0.419,0.4196,0.4203,0.4207,0.421,0.4217,0.4201,0.421,0.4222,0.4228,0.424,0.4251,0.4258,0.4258,0.4243,0.424,0.4247,0.4252,0.4256,0.4255,0.4166,0.4239,0.4238,0.4238,0.4237,0.4237,0.4241,0.4254,0.4252,0.4263,0.4263,0.4266,0.4278,0.4272,0.4281,0.4289,0.4279,0.4294,0.4295,0.4303,0.4304,0.4316,0.4304,0.4313,0.4316,0.4318,0.4322,0.4253,0.4317,0.4317,0.4317,0.4317,0.4317,0,0.431,0.4308,0.4317,0.4321,0.4329,0.4313,0.4315,0.4323,0.4336,0.4338,0.4345,0.4359,0.437,0.4364,0.4374,0.4384,0.4378,0.4388,0.4387,0.4387,0.4332,0.4326,0.4393,0.4393,0.4393,0.4393,0.4393,0.4393,0.4348,0.4369,0.4362,0.4384,0.4381,0.4395,0.4398,0.4401,0.4402,0.4418,0.4426,0.4422,0.4421,0.443,0.4439,0.4437,0.4442,0.4454,0.445,0.4399,0.4391,0.4384,0.4378,0.4455,0.4455,0.4504,0.4505,0.4505]}]]